Regional Weather Roundup
Issued by NWS

Home | Current Version | Previous Version | Graphics & Text | Print | Product List | Glossary On
Versions: 1 2 3 4 5 6 7 8 9 10 11 12 13 14 15 16 17 18 19 20 21 22 23 24 25 26 27 28 29 30 31 32 33 34 35 36 37 38 39 40 41 42 43 44 45 46 47 48 49 50
000
ASUS43 KOAX 231402
RWRNE

WEATHER ROUNDUP FOR NEBRASKA
NATIONAL WEATHER SERVICE OMAHA NE
900 AM CDT SAT JUL 23 2016

NOTES: SATELLITE DATA IS BEING USED TO AUGMENT CLOUD COVER ABOVE
       12000 FEET.
       "FAIR" INDICATES FEW OR NO CLOUDS BELOW 12,000 FEET WITH NO
       SIGNIFICANT WEATHER AND/OR OBSTRUCTIONS TO VISIBILITY.

  * THESE STATIONS DO NOT REPORT WEATHER SUCH AS RAIN...SNOW OR FOG.

NEZ001>004-019>022-054>056-231500-
NEBRASKA PANHANDLE

CITY           SKY/WX    TMP DP  RH WIND       PRES   REMARKS
SCOTTSBLUFF    SUNNY     74  59  59 NW5       29.97R
ALLIANCE       CLOUDY    72  63  73 SW9       29.94S
CHADRON        SUNNY     74  63  68 SW12      29.89R
SIDNEY         CLOUDY    78  61  55 SW18G24   30.03S
$$

NEZ057>060-069>072-079>082-231500-
SOUTHWEST NEBRASKA

CITY           SKY/WX    TMP DP  RH WIND       PRES   REMARKS
NORTH PLATTE   SUNNY     77  67  71 W8        29.90S
IMPERIAL       CLOUDY    75  65  70 SW6       29.96R
LEXINGTON      MOSUNNY   78  66  65 S12       29.86R
MCCOOK         CLOUDY    77  66  68 S7        29.90R
OGALLALA       CLOUDY    73  67  83 W7        29.95S
$$

NEZ005>010-023>029-035>040-094-231500-
NORTH CENTRAL NEBRASKA

CITY           SKY/WX    TMP DP  RH WIND       PRES   REMARKS
VALENTINE      SUNNY     77  64  64 SW8       29.83R
AINSWORTH      SUNNY     76  66  71 S6        29.85R
BROKEN BOW     MOSUNNY   73  69  87 NE5       29.88R
O`NEILL        CLOUDY    76  70  81 S3        29.87R
ORD            CLOUDY    75  69  81 SE8       29.87R
THEDFORD       SUNNY     77  66  68 S9        29.90R
$$

NEZ041-046>049-061>064-073>077-083>087-231500-
SOUTH CENTRAL NEBRASKA

CITY           SKY/WX    TMP DP  RH WIND       PRES   REMARKS
GRAND ISLAND   CLOUDY    76  69  79 SE5       29.86S
AURORA         CLOUDY    76  72  88 SE6       29.85F
HASTINGS       MOSUNNY   77  69  76 S6        29.86R
HEBRON         CLOUDY    78  67  68 S13       29.85F
HOLDREGE       MOSUNNY   77  66  68 S10       29.86S
KEARNEY *      CLOUDY    75  66  73 S8        29.87R
$$

NEZ011>018-030>034-042>045-231500-
NORTHEAST NEBRASKA

CITY           SKY/WX    TMP DP  RH WIND       PRES   REMARKS
NORFOLK        CLOUDY    75  71  87 E5        29.84F
ALBION         CLOUDY    74  69  85 CALM      29.87S
BLAIR          CLOUDY    81  71  73 SW12G17   29.85S
FREMONT        CLOUDY    78  70  76 S9        29.86S
TEKAMAH        CLOUDY    79  73  82 S7        29.84S
WAYNE          LGT RAIN  76  74  93 S7        29.85S
$$

NEZ050>053-065>068-078-088>093-231500-
SOUTHEAST NEBRASKA

CITY           SKY/WX    TMP DP  RH WIND       PRES   REMARKS
LINCOLN        CLOUDY    80  71  74 S7        29.86S
OMAHA EPPLEY   CLOUDY    84  70  62 S10       29.84S
BEATRICE       CLOUDY    77  69  76 SE8G17    29.87F
FALLS CITY     CLOUDY    82  73  74 S12       29.89F
NEBRASKA CITY  CLOUDY    77  73  86 S10       29.88F
PLATTSMOUTH    CLOUDY    81  70  69 S12G18    29.86S
$$

NEZ044-045-051>053-067-231500-
OMAHA AREA

CITY           SKY/WX    TMP DP  RH WIND       PRES   REMARKS
OMAHA EPPLEY   CLOUDY    84  70  62 S10       29.84S
BLAIR          CLOUDY    81  71  73 SW12G17   29.85S
FREMONT        CLOUDY    78  70  76 S9        29.86S
MILLARD        PTSUNNY   83  71  67 SW6       29.84F
OFFUTT AFB     CLOUDY    82  71  68 VRB7      29.84F
PLATTSMOUTH    CLOUDY    81  70  69 S12G18    29.86S
WAHOO          FAIR      79  72  79 S6        29.85S
$$




USA.gov is the U.S. government's official web portal to all federal, state and local government web resources and services.